Manitowoc, WI

12:05 PM CDT on September 30, 2016 (GMT -0500)
Manitowoc County

Weather History for KMTW - April, 2013

Change the Weather History Date:

Saturday, April 27, 2013

  Actual Average Record
Temperature  
Mean Temperature 52 °F -  
Max Temperature 62 °F 56 °F 83 °F (1952)
Min Temperature 42 °F 38 °F 28 °F (2012)
Degree Days  
Heating Degree Days 13    
Growing Degree Days 2 (Base 50)    
Moisture  
Dew Point 41 °F    
Average Humidity 62    
Maximum Humidity 82    
Minimum Humidity 44    
Precipitation  
Precipitation 0.00 in - - ()
Sea Level Pressure  
Sea Level Pressure 30.16 in    
Wind  
Wind Speed 11 mph (South)    
Max Wind Speed 22 mph    
Max Gust Speed 30 mph    
Visibility 10 miles    
Events      
Averages and records for this station are not official NWS values.
T = Trace of Precipitation, MM = Missing Value Source: NWS Daily Summary

Daily Weather History Graph

Daily Weather History Graph

Search for Another Location

Airport or City:

Trip Planner

Search our weather history database for the weather conditions in past years. The results will help you decide how hot, cold, wet, or windy it might be!

Date:

Astronomy

Apr. 27, 2013 Rise Set
Actual Time 5:47 AM CDT 7:49 PM CDT
Civil Twilight 5:16 AM CDT 8:21 PM CDT
Nautical Twilight 4:37 AM CDT 8:59 PM CDT
Astronomical Twilight 3:55 AM CDT 9:42 PM CDT
Moon 10:22 PM CDT (4/27) 7:02 AM CDT (4/27)
Length of Visible Light 15h 05m
Length of Day
14h 02m
Waning Gibbous, 95% of the Moon is Illuminated
Apr 27
Waning Gibbous
May 2
Last Quarter
May 9
New
May 17
First Quarter
May 24
Full

Hourly Weather History & Observations

Time (CDT) Temp. Windchill Dew Point Humidity Pressure Visibility Wind Dir Wind Speed Gust Speed Precip Events Conditions
12:15 AM 55.4 °F - 42.8 °F 63% 30.20 in 10.0 mi SSW 11.5 mph - N/A   Clear
12:35 AM 55.4 °F - 42.8 °F 63% 30.20 in 10.0 mi SSW 11.5 mph - N/A   Clear
12:55 AM 55.4 °F - 42.8 °F 63% 30.21 in 10.0 mi SSW 11.5 mph 18.4 mph N/A   Clear
1:15 AM 55.4 °F - 42.8 °F 63% 30.21 in 10.0 mi SW 9.2 mph - N/A   Clear
1:35 AM 53.6 °F - 42.8 °F 67% 30.22 in 10.0 mi South 6.9 mph - N/A   Clear
2:15 AM 53.6 °F - 42.8 °F 67% 30.22 in 10.0 mi SSW 8.1 mph - N/A   Partly Cloudy
2:35 AM 53.6 °F - 42.8 °F 67% 30.22 in 10.0 mi SSW 8.1 mph - N/A   Clear
2:55 AM 53.6 °F - 42.8 °F 67% 30.22 in 10.0 mi SSW 9.2 mph - N/A   Clear
3:15 AM 53.6 °F - 42.8 °F 67% 30.21 in 10.0 mi SSW 10.4 mph - N/A   Clear
3:35 AM 51.8 °F - 42.8 °F 71% 30.21 in 10.0 mi SSW 11.5 mph - N/A   Clear
3:55 AM 51.8 °F - 42.8 °F 71% 30.21 in 10.0 mi SSW 10.4 mph - N/A   Clear
4:15 AM 51.8 °F - 42.8 °F 71% 30.21 in 10.0 mi SSW 11.5 mph - N/A   Clear
4:35 AM 51.8 °F - 42.8 °F 71% 30.21 in 10.0 mi SSW 10.4 mph - N/A   Clear
4:55 AM 51.8 °F - 42.8 °F 71% 30.21 in 10.0 mi SSW 9.2 mph - N/A   Clear
5:15 AM 51.8 °F - 42.8 °F 71% 30.20 in 10.0 mi SSW 8.1 mph - N/A   Clear
5:35 AM 50.0 °F - 42.8 °F 76% 30.20 in 10.0 mi SSW 8.1 mph - N/A   Clear
5:55 AM 50.0 °F - 42.8 °F 76% 30.20 in 10.0 mi SSW 6.9 mph - N/A   Clear
6:15 AM 48.2 °F - 39.2 °F 71% 30.20 in 10.0 mi South 4.6 mph - N/A   Clear
6:35 AM 48.2 °F - 42.8 °F 82% 30.21 in 10.0 mi SSW 6.9 mph - N/A   Clear
6:55 AM 51.8 °F - 42.8 °F 71% 30.21 in 10.0 mi SW 8.1 mph - N/A   Clear
7:15 AM 51.8 °F - 42.8 °F 71% 30.21 in 10.0 mi SSW 9.2 mph - N/A   Clear
7:35 AM 53.6 °F - 44.6 °F 72% 30.21 in 10.0 mi SW 8.1 mph - N/A   Clear
7:55 AM 55.4 °F - 44.6 °F 67% 30.21 in 10.0 mi SSW 8.1 mph 16.1 mph N/A   Clear
8:15 AM 55.4 °F - 44.6 °F 67% 30.21 in 10.0 mi SW 9.2 mph - N/A   Clear
8:35 AM 57.2 °F - 44.6 °F 63% 30.21 in 10.0 mi WSW 9.2 mph - N/A   Clear
8:55 AM 57.2 °F - 46.4 °F 67% 30.21 in 10.0 mi SW 10.4 mph - N/A   Clear
9:15 AM 59.0 °F - 46.4 °F 63% 30.21 in 10.0 mi SSW 5.8 mph - N/A   Clear
9:35 AM 60.8 °F - 46.4 °F 59% 30.20 in 10.0 mi SW 6.9 mph - N/A   Clear
9:55 AM 60.8 °F - 46.4 °F 59% 30.20 in 10.0 mi SW 9.2 mph - N/A   Clear
10:15 AM 62.6 °F - 46.4 °F 55% 30.20 in 10.0 mi SSW 8.1 mph - N/A   Clear
10:35 AM 62.6 °F - 46.4 °F 55% 30.19 in 10.0 mi ESE 10.4 mph - N/A   Clear
10:55 AM 60.8 °F - 44.6 °F 55% 30.20 in 10.0 mi SSE 10.4 mph - N/A   Clear
11:15 AM 59.0 °F - 44.6 °F 59% 30.20 in 10.0 mi SSE 15.0 mph - N/A   Clear
11:35 AM 59.0 °F - 44.6 °F 59% 30.20 in 10.0 mi SSE 16.1 mph - N/A   Clear
11:55 AM 59.0 °F - 44.6 °F 59% 30.19 in 10.0 mi SSE 13.8 mph - N/A   Clear
12:15 PM 59.0 °F - 44.6 °F 59% 30.19 in 10.0 mi SSE 13.8 mph - N/A   Clear
12:35 PM 59.0 °F - 44.6 °F 59% 30.19 in 10.0 mi SSE 16.1 mph - N/A   Clear
12:55 PM 59.0 °F - 44.6 °F 59% 30.19 in 10.0 mi SSE 15.0 mph - N/A   Clear
1:15 PM 57.2 °F - 42.8 °F 59% 30.19 in 10.0 mi SSE 17.3 mph - N/A   Clear
1:35 PM 57.2 °F - 44.6 °F 63% 30.18 in 10.0 mi SSE 19.6 mph 25.3 mph N/A   Clear
1:55 PM 57.2 °F - 44.6 °F 63% 30.18 in 10.0 mi SSE 18.4 mph 24.2 mph N/A   Clear
2:15 PM 57.2 °F - 44.6 °F 63% 30.18 in 10.0 mi SSE 19.6 mph 24.2 mph N/A   Clear
2:35 PM 57.2 °F - 44.6 °F 63% 30.17 in 10.0 mi SSE 19.6 mph - N/A   Clear
2:55 PM 57.2 °F - 44.6 °F 63% 30.16 in 10.0 mi SSE 17.3 mph - N/A   Clear
3:15 PM 57.2 °F - 42.8 °F 59% 30.15 in 10.0 mi SSE 20.7 mph 24.2 mph N/A   Clear
3:35 PM 57.2 °F - 42.8 °F 59% 30.14 in 10.0 mi SSE 18.4 mph - N/A   Clear
3:55 PM 57.2 °F - 41.0 °F 55% 30.14 in 10.0 mi South 19.6 mph 29.9 mph N/A   Clear
4:15 PM 57.2 °F - 39.2 °F 51% 30.13 in 10.0 mi South 21.9 mph - N/A   Clear
4:35 PM 57.2 °F - 39.2 °F 51% 30.12 in 10.0 mi SSE 17.3 mph - N/A   Clear
4:55 PM 57.2 °F - 39.2 °F 51% 30.12 in 10.0 mi South 20.7 mph 27.6 mph N/A   Clear
5:15 PM 55.4 °F - 39.2 °F 54% 30.11 in 10.0 mi SSE 20.7 mph 26.5 mph N/A   Clear
5:35 PM 57.2 °F - 39.2 °F 51% 30.11 in 10.0 mi SSE 18.4 mph - N/A   Clear
5:55 PM 57.2 °F - 37.4 °F 48% 30.10 in 10.0 mi SSE 18.4 mph - N/A   Clear
6:15 PM 57.2 °F - 37.4 °F 48% 30.10 in 10.0 mi SSE 16.1 mph - N/A   Clear
6:35 PM 55.4 °F - 37.4 °F 51% 30.09 in 10.0 mi South 16.1 mph - N/A   Clear
6:55 PM 55.4 °F - 35.6 °F 47% 30.09 in 10.0 mi SSE 15.0 mph - N/A   Clear
7:15 PM 55.4 °F - 35.6 °F 47% 30.08 in 10.0 mi South 12.7 mph - N/A   Clear
7:35 PM 55.4 °F - 33.8 °F 44% 30.08 in 10.0 mi South 9.2 mph - N/A   Clear
7:55 PM 53.6 °F - 35.6 °F 51% 30.07 in 10.0 mi South 6.9 mph - N/A   Clear
8:15 PM 53.6 °F - 35.6 °F 51% 30.07 in 10.0 mi South 6.9 mph - N/A   Clear
8:35 PM 51.8 °F - 35.6 °F 54% 30.07 in 10.0 mi South 6.9 mph - N/A   Clear
8:55 PM 53.6 °F - 35.6 °F 51% 30.07 in 10.0 mi South 4.6 mph - N/A   Clear
9:15 PM 51.8 °F - 35.6 °F 54% 30.07 in 10.0 mi South 5.8 mph - N/A   Clear
9:35 PM 51.8 °F - 35.6 °F 54% 30.07 in 10.0 mi South 6.9 mph - N/A   Clear
9:55 PM 51.8 °F - 35.6 °F 54% 30.07 in 10.0 mi South 4.6 mph - N/A   Clear
10:15 PM 50.0 °F - 35.6 °F 58% 30.06 in 10.0 mi South 3.5 mph - N/A   Clear
10:35 PM 46.4 °F - 35.6 °F 66% 30.06 in 10.0 mi Calm Calm - N/A   Clear
10:55 PM 44.6 °F 42.2 °F 37.4 °F 76% 30.05 in 10.0 mi East 4.6 mph - N/A   Clear
11:15 PM 44.6 °F 41.4 °F 37.4 °F 76% 30.05 in 10.0 mi East 5.8 mph - N/A   Clear
11:35 PM 42.8 °F 41.1 °F 37.4 °F 81% 30.05 in 10.0 mi East 3.5 mph - N/A   Clear
11:55 PM 42.8 °F - 37.4 °F 81% 30.04 in 10.0 mi Calm Calm - N/A   Clear